FW8285 Weather Reports


Display with metric or nautical units.
time (UTC)temp
F
wind
direction
speed
MPH
gust
MPH
rain 1hr
in
rain 24hr
in
rain mn
in
humidity
%
barometer
mb
20260504050105 44 0 0.0 0.0 0.00 0.00 0.00 72 1009.4
20260504044537 44 0 0.0 1.0 0.00 0.00 0.00 72 1009.5
20260504043040 45 0 0.0 1.0 0.00 0.00 0.00 72 1009.5
20260504041546 45 0 0.0 4.0 0.00 0.00 0.00 71 1009.5
20260504040043 44 0 1.0 5.0 0.00 0.00 0.00 71 1009.9
20260504034548 43 0 0.0 1.0 0.00 0.00 0.00 71 1009.8
20260504033044 42 290 0.0 1.0 0.00 0.00 0.00 72 1009.8
20260504031554 42 0 0.0 0.0 0.00 0.00 0.00 72 1009.6
20260504030046 41 0 0.0 0.0 0.00 0.00 0.00 72 1009.5
20260504024544 42 0 0.0 0.0 0.00 0.00 0.00 70 1009.5
20260504023040 43 0 0.0 0.0 0.00 0.00 0.00 68 1009.4
20260504021537 44 0 0.0 0.0 0.00 0.00 0.00 65 1009.6
20260504020041 45 0 0.0 0.0 0.00 0.00 0.00 62 1009.5
20260504014537 46 0 0.0 0.0 0.00 0.00 0.00 59 1009.4
20260504013046 47 0 0.0 3.0 0.00 0.00 0.00 59 1009.4
20260504011549 47 0 0.0 5.0 0.00 0.00 0.00 57 1009.5
20260504010045 48 0 1.0 7.0 0.00 0.00 0.00 56 1009.3
20260504004541 48 0 0.0 4.0 0.00 0.00 0.00 54 1009.1
20260504003045 49 250 1.0 10.0 0.00 0.00 0.00 51 1009.1
20260504001605 49 262 4.0 12.0 0.00 0.00 0.00 50 1008.9
20260504000047 49 259 3.0 7.0 0.00 0.00 0.00 48 1008.8
20260503234544 50 273 3.0 9.0 0.00 0.00 0.00 46 1008.6
20260503233042 51 278 3.0 9.0 0.00 0.00 0.00 44 1008.3
20260503231548 51 272 5.0 12.0 0.00 0.00 0.00 42 1008.2
20260503230041 53 221 4.0 12.0 0.00 0.00 0.00 40 1008.1
20260503224542 53 275 6.0 17.0 0.00 0.00 0.00 38 1007.8
20260503223045 54 227 6.0 20.0 0.00 0.00 0.00 38 1007.9
20260503221543 54 219 7.0 16.0 0.00 0.00 0.00 36 1007.6
20260503220041 54 280 9.0 17.0 0.00 0.00 0.00 35 1007.6
20260503214550 54 269 7.0 15.0 0.00 0.00 0.00 35 1007.6
20260503213103 55 291 7.0 15.0 0.00 0.00 0.00 35 1007.6
20260503211556 54 257 8.0 15.0 0.00 0.00 0.00 34 1007.6
20260503210044 54 275 6.0 15.0 0.00 0.00 0.00 37 1007.6
20260503204558 54 302 7.0 15.0 0.00 0.00 0.00 36 1007.5
20260503203043 54 223 7.0 17.0 0.00 0.00 0.00 36 1007.8
20260503201542 53 258 6.0 17.0 0.00 0.00 0.00 38 1007.8
20260503200041 53 262 4.0 13.0 0.00 0.00 0.00 43 1008.1
20260503194541 53 249 6.0 12.0 0.00 0.00 0.00 39 1008.2
20260503193036 52 255 3.0 12.0 0.00 0.00 0.00 44 1008.5
20260503191550 50 119 5.0 15.0 0.00 0.00 0.00 44 1008.7
20260503190044 51 271 5.0 15.0 0.00 0.00 0.00 42 1009.0
20260503184558 51 265 5.0 14.0 0.00 0.00 0.00 44 1009.1
20260503183045 50 282 4.0 16.0 0.00 0.00 0.00 45 1009.2
20260503181540 49 246 4.0 13.0 0.00 0.00 0.00 48 1009.4
20260503180040 49 284 4.0 12.0 0.00 0.00 0.00 46 1009.4
20260503174549 49 300 5.0 13.0 0.00 0.00 0.00 45 1009.5
20260503173042 48 275 3.0 11.0 0.00 0.00 0.00 48 1009.6
20260503171541 47 327 5.0 10.0 0.00 0.00 0.00 54 1009.7
20260503081555 35 262 0.0 5.0 0.00 0.02 0.00 84 1010.1
20260503071558 35 217 0.0 2.0 0.00 0.02 0.00 82 1010.3